Change the Weather History Date:

Monday, January 23, 2012

  Actual Average Record
Temperature  
Mean Temperature 39 °F -  
Max Temperature 48 °F 38 °F 62 °F (1933)
Min Temperature 30 °F 19 °F -14 °F (1984)
Degree Days  
Heating Degree Days 26    
Moisture  
Dew Point 35 °F    
Average Humidity 93    
Maximum Humidity 100    
Minimum Humidity 81    
Precipitation  
Precipitation 0.47 in - - ()
Sea Level Pressure  
Sea Level Pressure 30.10 in    
Wind  
Wind Speed 2 mph (NNE)    
Max Wind Speed 7 mph    
Max Gust Speed -    
Visibility 3 miles    
Events Fog , Rain    
Averages and records for this station are not official NWS values.
T = Trace of Precipitation, MM = Missing Value Source: NWS Daily Summary

Daily Weather History Graph

Daily Weather History Graph

Search for Another Location

Airport or City:

Trip Planner

Search our weather history database for the weather conditions in past years. The results will help you decide how hot, cold, wet, or windy it might be!

Date:

Astronomy

Jan. 23, 2012 Rise Set
Actual Time 7:16 AM EST 5:04 PM EST
Civil Twilight 6:46 AM EST 5:34 PM EST
Nautical Twilight 6:13 AM EST 6:07 PM EST
Astronomical Twilight 5:41 AM EST 6:40 PM EST
Moon 7:10 AM EST (1/23) 5:50 PM EST (1/23)
Length of Visible Light 10h 47m
Length of Day
9h 48m
New Moon, 0% of the Moon is Illuminated
Jan 23
New Moon
Jan 30
First Quarter
Feb 7
Full
Feb 14
Last Quarter
Feb 21
New

Hourly Weather History & Observations

Time (EST) Temp. Windchill Dew Point Humidity Pressure Visibility Wind Dir Wind Speed Gust Speed Precip Events Conditions
12:38 AM 30.2 °F 26.7 °F 26.6 °F 86% 30.39 in 10.0 mi North 3.5 mph - N/A   Overcast
12:53 AM 32.0 °F - 27.0 °F 82% 30.40 in 10.0 mi Calm Calm - N/A   Overcast
1:49 AM 33.8 °F 29.6 °F 28.4 °F 81% 30.37 in 10.0 mi NNE 4.6 mph - 0.00 in Rain Light Rain
1:53 AM 33.1 °F 30.0 °F 28.9 °F 85% 30.38 in 10.0 mi NNE 3.5 mph - 0.00 in   Overcast
2:17 AM 33.8 °F - 28.4 °F 81% 30.36 in 10.0 mi Calm Calm - N/A   Overcast
2:53 AM 34.0 °F 31.0 °F 30.0 °F 85% 30.36 in 10.0 mi ENE 3.5 mph - N/A   Overcast
3:53 AM 34.0 °F - 30.0 °F 85% 30.34 in 10.0 mi Calm Calm - N/A   Overcast
4:24 AM 33.8 °F - 30.2 °F 87% 30.31 in 2.5 mi Calm Calm - N/A   Overcast
4:35 AM 33.8 °F - 30.2 °F 87% 30.31 in 3.0 mi Calm Calm - N/A   Overcast
4:53 AM 34.0 °F - 30.9 °F 89% 30.32 in 6.0 mi Calm Calm - N/A   Overcast
5:03 AM 33.8 °F - 30.2 °F 87% 30.31 in 4.0 mi Calm Calm - N/A   Overcast
5:53 AM 34.0 °F - 32.0 °F 92% 30.29 in 2.5 mi Calm Calm - N/A   Overcast
6:05 AM 33.8 °F 29.6 °F 30.2 °F 87% 30.27 in 3.0 mi NNE 4.6 mph - N/A   Overcast
6:40 AM 33.8 °F - 32.0 °F 93% 30.26 in 2.5 mi Calm Calm - 0.01 in   Overcast
6:53 AM 33.1 °F - 32.0 °F 96% 30.26 in 2.0 mi Calm Calm - 0.01 in   Overcast
7:20 AM 33.8 °F 29.6 °F 32.0 °F 93% 30.23 in 3.0 mi NE 4.6 mph - N/A   Overcast
7:38 AM 33.8 °F 30.8 °F 32.0 °F 93% 30.23 in 1.8 mi North 3.5 mph - N/A   Overcast
7:53 AM 33.8 °F 30.8 °F 32.0 °F 93% 30.22 in 3.0 mi NNE 3.5 mph - N/A   Overcast
8:22 AM 35.6 °F 31.7 °F 33.8 °F 93% 30.22 in 2.5 mi NE 4.6 mph - N/A   Overcast
8:32 AM 35.6 °F 31.7 °F 33.8 °F 93% 30.22 in 3.0 mi NE 4.6 mph - 0.00 in Rain Light Rain
8:53 AM 35.1 °F 32.2 °F 33.1 °F 92% 30.22 in 4.0 mi ENE 3.5 mph - 0.03 in   Overcast
9:13 AM 33.8 °F 30.8 °F 33.8 °F 100% 30.22 in 2.0 mi North 3.5 mph - 0.01 in   Overcast
9:53 AM 35.1 °F 32.2 °F 33.1 °F 92% 30.23 in 2.5 mi North 3.5 mph - 0.04 in Rain Light Rain
10:53 AM 37.0 °F 33.3 °F 35.1 °F 93% 30.19 in 4.0 mi NNE 4.6 mph - 0.04 in   Overcast
11:28 AM 37.4 °F 32.8 °F 35.6 °F 93% 30.15 in 2.5 mi NNE 5.8 mph - 0.01 in Rain Light Rain
11:37 AM 35.6 °F 32.8 °F 35.6 °F 100% 30.14 in 1.8 mi Variable 3.5 mph - 0.01 in Rain Light Rain
11:53 AM 36.0 °F 31.1 °F 35.1 °F 97% 30.14 in 1.2 mi NNE 5.8 mph - 0.02 in Rain Light Rain
12:34 PM 37.4 °F 33.8 °F 35.6 °F 93% 30.10 in 3.0 mi NNW 4.6 mph - 0.04 in Rain Light Rain
12:42 PM 37.4 °F 32.1 °F 35.6 °F 93% 30.09 in 3.0 mi North 6.9 mph - 0.04 in   Overcast
12:51 PM 37.4 °F 34.9 °F 35.6 °F 93% 30.09 in 1.8 mi Variable 3.5 mph - 0.04 in Rain Light Rain
12:52 PM 37.4 °F - 35.6 °F 93% 30.09 in 1.8 mi Calm Calm - N/A Rain Light Rain
1:10 PM 37.4 °F 32.8 °F 35.6 °F 93% 30.07 in 2.0 mi Variable 5.8 mph - 0.02 in Rain Light Rain
1:23 PM 37.4 °F 32.8 °F 35.6 °F 93% 30.07 in 4.0 mi Variable 5.8 mph - 0.02 in Rain Light Rain
1:36 PM 37.4 °F - 37.4 °F 100% 30.06 in 2.5 mi Calm Calm - 0.02 in   Overcast
1:53 PM 37.9 °F - 36.0 °F 93% 30.05 in 2.0 mi Calm Calm - 0.02 in   Overcast
2:01 PM 37.4 °F 34.9 °F 35.6 °F 93% 30.04 in 1.0 mi NNW 3.5 mph - N/A   Overcast
2:18 PM 37.4 °F - 37.4 °F 100% 30.02 in 0.8 mi Calm Calm - 0.00 in Rain Light Rain
2:53 PM 37.9 °F 35.5 °F 37.0 °F 97% 30.01 in 0.5 mi WNW 3.5 mph - 0.00 in Fog , Rain Light Rain
3:25 PM 37.4 °F - 37.4 °F 100% 29.99 in 0.2 mi Calm Calm - 0.01 in Fog , Rain Light Rain
3:53 PM 37.0 °F 34.5 °F 36.0 °F 96% 29.99 in 0.5 mi NW 3.5 mph - 0.07 in Fog , Rain Rain
4:29 PM 37.4 °F - 37.4 °F 100% 29.98 in 0.2 mi Calm Calm - 0.08 in Fog , Rain Rain
4:53 PM 37.0 °F - 36.0 °F 96% 29.96 in 0.8 mi Calm Calm - 0.14 in Rain Light Rain
5:00 PM 37.4 °F - 35.6 °F 93% 29.96 in 1.0 mi Calm Calm - 0.01 in Rain Light Rain
5:09 PM 37.4 °F - 35.6 °F 93% 29.95 in 0.8 mi Calm Calm - 0.02 in Rain Light Rain
5:46 PM 37.4 °F - 35.6 °F 93% 29.96 in 1.0 mi Calm Calm - 0.05 in Rain Light Rain
5:53 PM 37.9 °F - 37.0 °F 97% 29.97 in 1.0 mi Calm Calm - 0.06 in Rain Light Rain
6:05 PM 37.4 °F - 37.4 °F 100% 29.95 in 0.8 mi Calm Calm - 0.01 in Rain Rain
6:53 PM 37.0 °F - 36.0 °F 96% 29.94 in 0.5 mi Calm Calm - 0.02 in Fog , Rain Light Rain
7:30 PM 37.4 °F - 35.6 °F 93% 29.91 in 1.0 mi Calm Calm - 0.01 in Rain Light Rain
7:53 PM 37.9 °F - 36.0 °F 93% 29.92 in 1.0 mi Calm Calm - 0.02 in   Overcast
8:06 PM 37.4 °F - 37.4 °F 100% 29.90 in 0.8 mi Calm Calm - N/A   Mist
8:32 PM 37.4 °F - 37.4 °F 100% 29.89 in 1.0 mi Calm Calm - N/A   Overcast
8:53 PM 37.4 °F - 35.6 °F 93% 29.88 in 1.0 mi Calm Calm - N/A   Overcast
9:28 PM 39.2 °F - 37.4 °F 93% 29.89 in 0.5 mi Calm Calm - N/A Fog Fog
9:48 PM 37.4 °F - 35.6 °F 93% 29.89 in 1.5 mi Calm Calm - N/A   Overcast
9:53 PM 37.0 °F - 37.0 °F 100% 29.90 in 1.5 mi Calm Calm - N/A   Overcast
10:09 PM 42.8 °F - 42.8 °F 100% 29.89 in 0.8 mi Calm Calm - N/A   Overcast
10:18 PM 46.4 °F - 46.4 °F 100% 29.89 in 1.8 mi Calm Calm - N/A   Overcast
10:25 PM 46.4 °F - 46.4 °F 100% 29.89 in 2.0 mi Calm Calm - N/A   Overcast
10:41 PM 48.2 °F - 46.4 °F 93% 29.89 in 3.0 mi Variable 3.5 mph - N/A   Overcast
10:53 PM 48.9 °F - 48.0 °F 97% 29.89 in 4.0 mi Variable 3.5 mph - N/A   Overcast
11:53 PM 48.9 °F - 46.9 °F 93% 29.89 in 8.0 mi Calm Calm - N/A   Overcast